Previsão horária em Almansa

Hoje, 14 Junho, Segunda-feira

Tempo Temperatura Precipitação Vento Pressão Humidade
00:00 +22°C° 0 mm 1 m/s 706 mmHg 50%
01:00 +22°C° 0 mm 1 m/s 706 mmHg 51%
02:00 +21°C° 0 mm 1 m/s 705 mmHg 52%
03:00 +19°C° 0 mm 0 m/s 705 mmHg 53%
04:00 +20°C° 0 mm 0 m/s 705 mmHg 50%
05:00 +22°C° 0 mm 1 m/s 705 mmHg 48%
06:00 +21°C° 0 mm 0 m/s 706 mmHg 46%
07:00 +23°C° 0 mm 0 m/s 706 mmHg 39%
08:00 +24°C° 0 mm 0 m/s 706 mmHg 32%
09:00 +26°C° 0 mm 0 m/s 706 mmHg 26%
10:00 +29°C° 0 mm 1 m/s 706 mmHg 24%
11:00 +30°C° 0 mm 2 m/s 706 mmHg 23%
12:00 +31°C° 0 mm 2 m/s 707 mmHg 22%
13:00 +33°C° 0.2 mm 3 m/s 706 mmHg 23%
14:00 +33°C° 0.2 mm 3 m/s 706 mmHg 23%
15:00 +33°C° 0.2 mm 3 m/s 705 mmHg 24%
16:00 +33°C° 0 mm 3 m/s 705 mmHg 25%
17:00 +31°C° 0 mm 3 m/s 705 mmHg 26%
18:00 +31°C° 0 mm 3 m/s 704 mmHg 28%
19:00 +29°C° 0 mm 2 m/s 704 mmHg 32%
20:00 +28°C° 0 mm 2 m/s 705 mmHg 36%
21:00 +26°C° 0 mm 1 m/s 705 mmHg 40%
22:00 +25°C° 0.1 mm 1 m/s 705 mmHg 41%
23:00 +24°C° 0.1 mm 1 m/s 705 mmHg 43%

Amanhã, 15 Junho, Terça-feira

Tempo Temperatura Precipitação Vento Pressão Humidade
00:00 +24°C° 0.1 mm 1 m/s 705 mmHg 45%
01:00 +23°C° 0 mm 1 m/s 704 mmHg 45%
02:00 +23°C° 0 mm 1 m/s 704 mmHg 45%
03:00 +23°C° 0 mm 1 m/s 703 mmHg 46%
04:00 +23°C° 0.1 mm 1 m/s 704 mmHg 46%
05:00 +23°C° 0.1 mm 2 m/s 704 mmHg 47%
06:00 +23°C° 0.1 mm 2 m/s 704 mmHg 47%
07:00 +25°C° 0 mm 2 m/s 704 mmHg 41%
08:00 +26°C° 0 mm 3 m/s 705 mmHg 35%
09:00 +28°C° 0 mm 3 m/s 705 mmHg 29%
10:00 +29°C° 0 mm 4 m/s 705 mmHg 29%
11:00 +29°C° 0 mm 5 m/s 705 mmHg 29%
12:00 +30°C° 0 mm 5 m/s 705 mmHg 28%
13:00 +30°C° 0 mm 6 m/s 705 mmHg 29%
14:00 +30°C° 0 mm 6 m/s 704 mmHg 30%
15:00 +30°C° 0 mm 6 m/s 704 mmHg 31%
16:00 +29°C° 0 mm 6 m/s 704 mmHg 33%
17:00 +29°C° 0 mm 5 m/s 703 mmHg 34%
18:00 +28°C° 0 mm 5 m/s 703 mmHg 36%
19:00 +27°C° 0 mm 4 m/s 703 mmHg 40%
20:00 +25°C° 0 mm 3 m/s 704 mmHg 45%
21:00 +24°C° 0 mm 2 m/s 704 mmHg 50%
22:00 +23°C° 0 mm 2 m/s 703 mmHg 52%
23:00 +23°C° 0 mm 1 m/s 703 mmHg 55%

Depois de amanhã, 16 Junho, Quarta-feira

Tempo Temperatura Precipitação Vento Pressão Humidade
00:00 +22°C° 0 mm 1 m/s 703 mmHg 57%
01:00 +22°C° 0 mm 1 m/s 702 mmHg 58%
02:00 +22°C° 0 mm 1 m/s 702 mmHg 59%
03:00 +21°C° 0 mm 1 m/s 702 mmHg 60%
04:00 +22°C° 0 mm 1 m/s 702 mmHg 58%
05:00 +22°C° 0 mm 1 m/s 702 mmHg 57%
06:00 +22°C° 0 mm 1 m/s 702 mmHg 55%
07:00 +23°C° 0 mm 1 m/s 702 mmHg 52%
08:00 +24°C° 0 mm 1 m/s 702 mmHg 49%
09:00 +25°C° 0 mm 1 m/s 702 mmHg 46%
10:00 +25°C° 0 mm 3 m/s 702 mmHg 45%
11:00 +26°C° 0 mm 4 m/s 702 mmHg 44%
12:00 +27°C° 0 mm 6 m/s 702 mmHg 43%
13:00 +27°C° 0 mm 5 m/s 702 mmHg 42%
14:00 +28°C° 0 mm 4 m/s 702 mmHg 40%
15:00 +28°C° 0 mm 3 m/s 701 mmHg 38%
16:00 +28°C° 0 mm 3 m/s 701 mmHg 40%
17:00 +27°C° 0 mm 4 m/s 701 mmHg 41%
18:00 +27°C° 0 mm 4 m/s 701 mmHg 43%
19:00 +26°C° 0.1 mm 3 m/s 701 mmHg 47%
20:00 +25°C° 0.1 mm 2 m/s 701 mmHg 51%
21:00 +24°C° 0.1 mm 1 m/s 701 mmHg 54%
22:00 +23°C° 0.1 mm 2 m/s 701 mmHg 57%
23:00 +23°C° 0.1 mm 2 m/s 700 mmHg 59%

17 Junho, Quinta-feira

Tempo Temperatura Precipitação Vento Pressão Humidade
00:00 +23°C° 0.1 mm 2 m/s 700 mmHg 61%
01:00 +20°C° 2.6 mm 2 m/s 700 mmHg 68%
02:00 +19°C° 2.6 mm 2 m/s 700 mmHg 75%
03:00 +18°C° 2.6 mm 3 m/s 700 mmHg 81%
04:00 +18°C° 0.4 mm 2 m/s 700 mmHg 80%
05:00 +18°C° 0.4 mm 2 m/s 699 mmHg 79%
06:00 +19°C° 0.4 mm 1 m/s 699 mmHg 78%
07:00 +19°C° 0.4 mm 2 m/s 700 mmHg 73%
08:00 +20°C° 0.4 mm 3 m/s 700 mmHg 68%
09:00 +21°C° 0.4 mm 4 m/s 700 mmHg 63%
10:00 +22°C° 0 mm 4 m/s 700 mmHg 58%
11:00 +24°C° 0 mm 3 m/s 700 mmHg 52%
12:00 +25°C° 0 mm 3 m/s 700 mmHg 47%
13:00 +26°C° 0 mm 3 m/s 700 mmHg 44%
14:00 +27°C° 0 mm 3 m/s 700 mmHg 40%
15:00 +28°C° 0 mm 3 m/s 700 mmHg 36%
16:00 +28°C° 0 mm 3 m/s 700 mmHg 37%
17:00 +27°C° 0 mm 3 m/s 700 mmHg 39%
18:00 +27°C° 0 mm 3 m/s 700 mmHg 40%
19:00 +26°C° 0 mm 3 m/s 700 mmHg 44%
20:00 +25°C° 0 mm 2 m/s 701 mmHg 48%
21:00 +24°C° 0 mm 2 m/s 701 mmHg 52%
22:00 +23°C° 0 mm 2 m/s 701 mmHg 55%
23:00 +23°C° 0 mm 1 m/s 701 mmHg 59%

18 Junho, Sexta-feira

Tempo Temperatura Precipitação Vento Pressão Humidade
00:00 +22°C° 0 mm 1 m/s 701 mmHg 62%
01:00 +22°C° 0 mm 1 m/s 701 mmHg 66%
02:00 +21°C° 0 mm 1 m/s 700 mmHg 70%
03:00 +20°C° 0 mm 2 m/s 700 mmHg 74%
04:00 +19°C° 0 mm 2 m/s 700 mmHg 77%
05:00 +19°C° 0 mm 2 m/s 700 mmHg 80%
06:00 +19°C° 0 mm 2 m/s 700 mmHg 82%
07:00 +20°C° 0 mm 2 m/s 701 mmHg 71%
08:00 +22°C° 0 mm 3 m/s 701 mmHg 60%
09:00 +23°C° 0 mm 4 m/s 701 mmHg 48%
10:00 +25°C° 0 mm 4 m/s 701 mmHg 46%
11:00 +25°C° 0 mm 5 m/s 702 mmHg 44%
12:00 +26°C° 0 mm 5 m/s 702 mmHg 42%
13:00 +27°C° 0 mm 5 m/s 701 mmHg 42%
14:00 +27°C° 0 mm 5 m/s 701 mmHg 42%
15:00 +27°C° 0 mm 5 m/s 701 mmHg 42%
16:00 +26°C° 0 mm 5 m/s 701 mmHg 45%
17:00 +25°C° 0 mm 5 m/s 701 mmHg 48%
18:00 +25°C° 0 mm 5 m/s 701 mmHg 51%
19:00 +22°C° 0 mm 4 m/s 702 mmHg 59%
20:00 +21°C° 0 mm 4 m/s 702 mmHg 67%
21:00 +19°C° 0 mm 3 m/s 702 mmHg 75%
22:00 +19°C° 0 mm 3 m/s 702 mmHg 77%
23:00 +19°C° 0 mm 3 m/s 702 mmHg 79%

19 Junho, Sábado

Tempo Temperatura Precipitação Vento Pressão Humidade
00:00 +18°C° 0 mm 2 m/s 702 mmHg 82%
01:00 +18°C° 0.1 mm 2 m/s 702 mmHg 83%
02:00 +18°C° 0.1 mm 2 m/s 701 mmHg 84%
03:00 +19°C° 0.1 mm 1 m/s 701 mmHg 85%
04:00 +19°C° 0.5 mm 1 m/s 701 mmHg 84%
05:00 +19°C° 0.5 mm 1 m/s 700 mmHg 83%
06:00 +17°C° 0.5 mm 0 m/s 700 mmHg 82%
07:00 +19°C° 0.7 mm 1 m/s 700 mmHg 76%
08:00 +20°C° 0.7 mm 1 m/s 701 mmHg 70%
09:00 +21°C° 0.7 mm 1 m/s 701 mmHg 64%
10:00 +21°C° 0 mm 2 m/s 701 mmHg 58%
11:00 +23°C° 0 mm 2 m/s 701 mmHg 52%
12:00 +25°C° 0 mm 3 m/s 701 mmHg 45%
13:00 +25°C° 0 mm 3 m/s 701 mmHg 43%
14:00 +26°C° 0 mm 3 m/s 700 mmHg 40%
15:00 +26°C° 0 mm 3 m/s 700 mmHg 38%
16:00 +26°C° 0 mm 3 m/s 700 mmHg 36%
17:00 +26°C° 0 mm 3 m/s 700 mmHg 34%
18:00 +26°C° 0 mm 3 m/s 700 mmHg 33%
19:00 +25°C° 0 mm 2 m/s 700 mmHg 34%
20:00 +24°C° 0 mm 2 m/s 700 mmHg 36%
21:00 +24°C° 0 mm 1 m/s 701 mmHg 37%
22:00 +23°C° 0 mm 1 m/s 701 mmHg 39%
23:00 +23°C° 0 mm 1 m/s 700 mmHg 42%
Mostrar mais